Location: Clanezzo
(45.7500°N, 9.6000°E)
Time: 01:05:42
(UTC+00:00)

AO-92 - Visible Passes

Search period start: 30 June 2022 00:00
Search period end: 10 July 2022 00:00
Orbit: 472 x 481 km, 97.4° (Epoch: 29 June)

Date Brightness Start Highest point End Pass type
(mag) Time Alt. Az. Time Alt. Az. Time Alt. Az.
30 Jun ? 20:12:23 10° E 20:14:20 14° ENE 20:16:17 10° NNE visible
30 Jun ? 21:45:58 29° SSW 21:47:16 43° W 21:50:42 10° NNW visible
01 Jul ? 21:19:00 32° SSE 21:20:33 83° ENE 21:24:07 10° N visible
02 Jul ? 20:52:02 21° SE 20:53:54 37° ENE 20:57:14 10° N visible
02 Jul ? 22:26:14 13° WSW 22:27:22 15° W 22:29:29 10° NW visible
03 Jul ? 20:25:04 11° ESE 20:27:21 19° ENE 20:29:58 10° NNE visible
03 Jul ? 21:59:16 24° SW 22:00:28 30° W 22:03:39 10° NNW visible
04 Jul ? 20:00:25 10° ENE 20:00:54 10° ENE 20:01:22 10° NE visible
04 Jul ? 21:32:17 34° S 21:33:39 66° W 21:37:13 10° NNW visible
05 Jul ? 21:05:18 28° SE 21:06:56 55° ENE 21:10:27 10° N visible
05 Jul ? 22:39:49 10° WSW 22:40:34 11° W 22:41:21 10° WNW visible
06 Jul ? 20:38:18 16° ESE 20:40:19 26° ENE 20:43:21 10° N visible
06 Jul ? 22:12:30 19° WSW 22:13:36 21° W 22:16:24 10° NW visible
07 Jul ? 20:11:52 10° E 20:13:47 14° ENE 20:15:42 10° NNE visible
07 Jul ? 21:45:30 31° SSW 21:46:42 44° W 21:50:09 10° NNW visible
08 Jul ? 21:18:30 34° SSE 21:19:55 81° ENE 21:23:30 10° N visible
09 Jul ? 20:51:29 22° SE 20:53:13 37° ENE 20:56:32 10° N visible
09 Jul ? 22:25:41 14° WSW 22:26:39 15° W 22:28:51 10° NW visible
